Wetbulb
75.10 74.15 72.86 71.44 71.16 70.75 70.28 70.52 70.80 71.08 71.42 71.42 71.95 71.65 71.58 71.73 71.90 72.29 72.50 72.62 72.92 73.04 71.48 69.68 69.28 69.18 69.60 69.21 68.74 69.04 70.53 71.46
76.02 75.99 75.10 74.49 73.63 70.41 70.36 70.52 70.57 70.87 71.30 71.28 71.25 71.20 71.26 71.15 71.13 70.98 71.79 72.12 72.36 72.24 71.87 70.51 69.08 68.34 68.11 68.02 68.17 68.85 70.42 69.49
75.97 75.77 75.84 75.99 75.29 73.21 71.08 71.11 70.86 70.73 71.19 70.93 70.27 72.43 72.96 72.04 70.77 70.77 71.18 71.32 71.46 71.56 71.37 70.76 69.97 68.61 67.73 67.35 67.49 68.28 68.40 69.15
74.78 75.12 74.33 74.33 74.25 74.58 74.22 74.46 74.28 74.00 72.98 73.57 73.76 74.79 75.04 73.37 71.33 70.33 70.77 70.67 70.36 69.97 69.93 70.13 69.99 71.36 71.28 67.90 69.10 69.28 69.16 69.10
72.86 73.87 73.86 73.95 73.13 73.30 72.84 73.18 72.48 70.08 71.09 71.15 72.54 73.78 74.53 73.65 74.05 72.81 72.30 70.34 72.10 70.56 70.84 70.96 70.72 71.09 70.98 70.33 70.87 70.59 70.73 70.94
71.97 71.80 70.87 69.56 69.80 68.11 69.12 67.77 67.52 65.77 65.66 66.81 68.95 70.41 70.99 70.99 70.97 71.24 71.73 72.94 72.27 72.45 72.70 72.04 72.13 72.49 71.95 72.33 71.86 71.59 71.27 70.92
68.89 68.56 67.51 65.01 64.16 64.56 63.38 62.73 61.81 60.79 61.95 61.49 63.42 64.43 65.44 66.40 68.06 68.26 69.23 68.66 69.11 69.04 69.82 70.22 70.64 70.81 71.73 71.05 70.97 71.11 71.01 72.02
67.74 67.29 65.47 63.04 60.05 58.73 58.30 58.09 58.38 58.11 58.35 57.87 59.68 62.09 60.70 62.12 63.26 64.54 65.89 65.37 64.97 64.71 65.52 65.97 67.21 68.70 69.39 70.24 70.41 71.33 70.88 70.01
65.75 66.42 66.54 63.92 61.28 58.19 56.25 55.82 55.70 55.22 55.25 57.09 56.49 58.00 58.82 59.14 58.61 59.13 59.30 60.31 60.30 61.94 62.26 62.84 63.47 64.74 65.74 67.00 67.87 68.08 69.40 70.29
62.40 62.91 62.96 63.13 62.21 60.86 59.33 58.28 57.61 56.55 56.43 56.62 56.75 56.56 56.68 56.94 56.55 57.00 57.52 57.32 57.27 57.56 57.96 57.61 58.62 59.35 61.53 62.31 63.84 65.18 66.12 66.86
58.61 59.30 58.78 58.74 58.78 58.15 57.70 57.55 56.30 55.66 55.63 55.22 55.79 55.82 56.02 55.58 55.29 56.31 56.82 55.30 55.42 55.61 55.69 56.55 56.29 57.14 58.16 59.82 60.85 60.65 62.38 62.61
56.52 56.58 57.17 57.38 56.62 56.78 55.72 55.04 54.93 54.27 54.15 54.18 55.04 55.07 55.50 55.63 55.40 55.85 55.82 54.77 54.18 54.68 54.56 54.77 54.49 54.96 54.37 55.43 58.35 59.44 60.02 60.48
54.25 54.21 55.13 56.12 56.01 54.52 54.22 52.72 52.84 52.77 53.23 54.11 53.93 53.77 54.22 54.18 53.84 54.78 55.19 53.98 53.98 54.29 53.77 53.37 53.00 55.50 53.61 54.41 56.73 58.82 59.55 58.66
53.76 53.48 53.86 53.12 52.98 53.00 52.56 52.71 53.34 53.39 54.69 54.06 53.89 53.82 54.13 53.62 53.58 53.01 52.92 51.42 52.13 53.12 53.43 52.20 52.02 53.75 52.16 51.85 49.43 53.43 56.70 58.48
53.37 53.18 52.96 53.18 53.40 53.43 53.41 54.38 54.78 51.81 51.63 51.85 52.04 52.98 52.96 53.41 53.17 53.41 53.16 53.13 51.38 50.97 51.18 50.67 48.91 51.72 53.18 51.01 48.28 48.59 52.63 56.19
54.30 53.82 52.92 52.30 52.75 51.98 51.73 49.66 48.18 49.55 49.52 49.95 50.44 52.10 51.87 52.60 52.45 52.34 52.96 53.17 52.45 51.77 51.40 51.24 51.14 48.45 52.59 53.09 54.87 53.46 48.22 47.25
54.58 53.48 52.40 52.03 52.95 52.79 50.04 48.80 48.27 47.36 47.76 48.26 49.88 50.77 51.82 52.07 52.33 52.04 51.72 52.02 52.18 52.00 52.02 52.09 51.67 50.59 50.16 50.92 52.40 52.31 53.26 49.24
54.77 53.32 52.21 54.20 52.60 50.50 49.36 47.85 47.34 46.72 47.60 47.61 48.77 49.33 49.99 50.71 51.35 51.33 51.49 50.81 50.53 50.28 50.68 50.87 50.80 50.93 50.69 50.99 49.65 48.66 48.81 48.48
54.38 53.22 52.55 53.79 51.30 50.42 50.10 49.97 49.24 48.98 47.90 49.11 49.17 48.60 49.00 49.84 50.65 50.88 50.33 50.92 50.76 49.87 49.44 50.23 50.35 49.96 50.73 50.24 50.98 50.13 50.67 49.65
54.22 52.78 53.01 52.66 51.38 52.03 53.89 52.02 51.13 48.71 50.08 49.65 49.28 48.76 48.68 49.90 50.33 50.75 50.93 50.82 50.85 50.94 50.17 50.05 50.94 50.44 49.84 49.71 49.83 50.48 50.59 49.99
MSLP
1013.50 1014.07 1014.61 1014.95 1015.18 1015.58 1015.86 1016.07 1016.23 1016.41 1016.55 1016.58 1016.73 1016.87 1016.94 1017.07 1017.27 1017.38 1017.43 1017.47 1017.54 1017.60 1017.64 1017.67 1017.65 1017.78 1017.81 1017.87 1017.91 1017.87 1017.39 1016.14
1012.95 1013.40 1014.12 1014.56 1015.06 1015.64 1015.89 1016.24 1016.54 1016.72 1016.80 1016.86 1016.85 1016.93 1017.07 1017.26 1017.34 1017.36 1017.49 1017.65 1017.74 1017.79 1017.86 1017.89 1017.86 1017.77 1017.83 1017.94 1018.00 1017.99 1017.51 1016.51
1012.54 1012.93 1013.43 1013.71 1014.41 1015.48 1016.05 1016.08 1016.23 1016.46 1016.63 1016.76 1016.88 1016.35 1016.28 1016.56 1016.59 1016.91 1017.33 1017.56 1017.76 1017.83 1017.92 1017.96 1017.96 1017.89 1017.73 1017.68 1017.91 1017.34 1016.55 1016.13
1012.46 1012.79 1013.82 1014.29 1014.32 1014.94 1015.40 1015.43 1015.42 1015.52 1015.76 1015.75 1015.85 1015.52 1015.68 1015.93 1016.39 1016.89 1017.06 1017.20 1017.40 1017.44 1017.52 1017.59 1017.66 1016.77 1016.57 1017.19 1016.93 1016.31 1015.82 1015.21
1013.96 1014.24 1014.39 1014.66 1014.99 1015.21 1015.60 1015.54 1015.80 1016.30 1016.30 1016.41 1016.46 1016.09 1015.79 1015.71 1015.78 1015.79 1016.12 1016.72 1016.37 1016.52 1016.59 1016.62 1016.14 1015.61 1014.99 1015.78 1015.92 1015.59 1015.10 1014.71
1014.18 1014.86 1015.39 1015.76 1016.10 1016.47 1016.66 1016.67 1016.59 1016.89 1017.20 1017.21 1017.16 1016.89 1016.57 1016.50 1016.41 1016.63 1016.36 1016.09 1016.12 1016.15 1016.22 1015.91 1015.56 1015.41 1015.06 1014.84 1015.23 1015.02 1014.78 1014.87
1015.05 1015.44 1016.19 1016.64 1016.93 1017.42 1017.73 1017.95 1017.91 1018.23 1018.10 1018.14 1017.74 1017.68 1017.59 1017.41 1017.32 1016.78 1016.70 1016.61 1016.40 1016.27 1016.21 1016.06 1015.79 1015.73 1015.08 1014.98 1014.92 1014.99 1014.96 1014.58
1015.44 1016.07 1016.63 1017.05 1017.63 1018.07 1018.66 1018.56 1018.93 1018.62 1018.80 1018.63 1018.49 1018.26 1018.01 1017.71 1017.75 1017.74 1017.56 1017.53 1017.12 1017.19 1016.47 1016.32 1015.85 1015.44 1015.36 1015.18 1015.08 1014.85 1014.98 1015.17
1016.03 1016.17 1016.16 1016.92 1017.48 1017.95 1018.29 1018.96 1018.77 1018.72 1019.07 1019.10 1018.95 1019.00 1018.74 1018.46 1017.90 1017.79 1017.76 1018.09 1017.66 1017.07 1016.72 1016.39 1015.81 1015.20 1014.94 1014.69 1014.68 1014.99 1014.75 1014.65
1016.28 1016.67 1017.00 1016.95 1017.17 1017.43 1017.77 1018.24 1018.34 1018.63 1018.84 1018.99 1019.31 1019.12 1018.99 1018.66 1018.27 1018.19 1018.36 1018.16 1017.62 1017.39 1017.11 1016.69 1016.07 1015.53 1015.09 1014.67 1014.27 1013.98 1014.26 1014.39
1016.17 1016.70 1017.08 1017.59 1017.56 1017.94 1018.19 1018.56 1018.66 1018.92 1019.02 1019.27 1019.58 1019.68 1019.55 1019.25 1018.78 1018.72 1018.77 1018.22 1017.85 1017.62 1017.30 1017.02 1016.49 1016.03 1015.45 1014.81 1014.34 1014.08 1013.83 1013.45
1016.88 1016.76 1016.82 1017.65 1017.84 1017.81 1018.17 1018.51 1019.03 1019.53 1019.66 1019.98 1020.13 1020.12 1020.02 1019.66 1019.09 1018.96 1019.00 1018.64 1018.20 1017.89 1017.88 1017.46 1017.10 1016.57 1015.86 1015.14 1014.78 1014.29 1013.95 1013.59
1017.29 1017.59 1018.14 1017.98 1018.23 1017.59 1017.70 1018.36 1018.98 1019.90 1020.23 1020.38 1020.40 1020.76 1020.75 1020.26 1020.02 1019.45 1019.19 1019.07 1018.90 1018.61 1018.14 1017.59 1017.08 1016.48 1015.89 1015.30 1014.50 1013.75 1013.40 1013.40
1017.62 1018.07 1018.19 1018.39 1018.75 1018.99 1019.10 1019.18 1019.37 1019.64 1019.99 1019.72 1020.26 1020.61 1020.62 1020.51 1020.48 1020.02 1019.82 1019.76 1019.51 1019.11 1018.72 1018.12 1017.72 1016.97 1016.24 1015.71 1014.51 1013.28 1012.58 1012.67
1017.55 1018.06 1018.46 1018.63 1018.94 1019.09 1019.19 1019.19 1018.95 1018.86 1019.58 1019.89 1020.58 1020.61 1020.74 1020.61 1020.39 1020.00 1019.72 1019.57 1019.58 1019.65 1019.31 1018.83 1018.08 1017.61 1017.10 1016.53 1015.43 1014.04 1013.78 1012.95
1017.58 1018.15 1018.85 1019.27 1019.45 1019.67 1019.78 1020.07 1020.28 1019.99 1020.22 1020.44 1020.51 1020.29 1020.35 1020.37 1020.47 1020.22 1019.23 1019.42 1019.25 1019.05 1019.21 1019.04 1018.54 1018.07 1017.37 1016.78 1016.22 1015.99 1015.35 1014.31
1017.57 1018.33 1018.84 1019.53 1019.84 1020.04 1020.23 1020.57 1020.89 1020.62 1020.75 1020.21 1020.24 1020.37 1019.76 1019.82 1019.99 1019.72 1019.46 1019.20 1019.06 1019.14 1018.85 1018.57 1018.48 1018.04 1017.57 1016.94 1016.28 1015.86 1015.67 1015.15
1017.41 1018.13 1018.71 1019.27 1019.67 1020.14 1020.37 1020.60 1020.74 1020.73 1020.09 1020.12 1019.98 1019.92 1019.72 1019.66 1019.53 1019.61 1019.57 1019.50 1019.27 1019.03 1018.84 1018.72 1018.46 1017.94 1017.67 1017.22 1016.80 1016.44 1015.78 1015.23
1017.04 1017.98 1018.27 1019.10 1019.61 1019.87 1020.06 1020.25 1020.44 1020.48 1020.36 1020.01 1019.87 1019.71 1019.51 1019.39 1019.46 1019.45 1019.42 1019.30 1019.13 1019.08 1018.83 1018.55 1018.35 1017.92 1017.48 1017.17 1016.76 1016.34 1015.95 1015.65
1016.63 1017.49 1017.90 1018.84 1019.37 1019.36 1019.80 1020.05 1019.98 1020.08 1019.51 1019.81 1019.82 1019.71 1019.62 1019.42 1019.39 1019.22 1019.07 1018.94 1018.73 1018.67 1018.60 1018.27 1017.96 1017.65 1017.37 1017.30 1016.94 1016.52 1016.09 1015.87
Wind_Speed
11 11 11 9 9 7 6 6 7 6 7 8 7 7 8 8 7 7 7 7 7 7 8 8 9 9 10 10 10 10 10 10
11 11 11 10 10 7 6 4 3 3 4 4 5 5 5 6 6 8 7 6 6 7 7 9 9 9 9 9 9 9 12 12
10 10 11 11 9 9 7 7 7 7 8 6 6 8 10 10 10 6 6 5 5 6 7 8 9 10 11 10 9 9 12 10
9 5 6 4 8 8 7 8 6 4 1 5 7 7 2 3 8 5 6 7 8 9 10 10 9 10 11 13 9 12 11 10
4 5 5 3 2 3 1 2 4 5 8 7 6 4 4 4 3 5 6 10 8 11 11 11 14 11 9 9 10 9 8 9
8 7 7 7 4 5 4 4 5 6 7 9 6 5 4 3 4 5 5 3 6 5 6 8 10 12 12 11 12 9 8 7
10 8 9 7 8 5 5 5 6 7 7 8 7 5 6 6 4 4 6 6 6 5 6 7 8 9 10 11 12 11 13 7
7 10 10 10 8 9 6 6 5 6 5 7 8 5 6 5 6 5 3 5 7 8 8 8 8 7 10 10 10 10 10 8
7 8 10 11 11 9 8 5 5 6 6 7 8 7 7 7 4 4 4 6 8 7 7 9 8 9 12 10 9 11 11 12
9 8 8 9 8 7 6 6 5 6 5 6 9 8 8 7 5 4 6 7 7 7 7 8 9 9 9 10 10 10 11 11
13 10 10 8 9 8 8 7 6 6 6 7 9 9 9 7 6 6 7 6 6 7 7 8 8 9 10 9 9 10 11 11
8 8 12 9 6 6 6 6 6 5 6 7 9 8 10 9 7 7 7 7 7 7 9 8 9 9 11 11 9 9 10 10
9 8 6 4 2 3 5 5 6 6 6 8 9 8 9 9 8 8 7 8 8 8 8 9 8 8 9 9 10 10 10 9
7 6 5 4 4 4 4 5 4 4 2 5 6 7 7 7 7 7 7 6 8 9 9 7 8 7 7 9 8 7 7 8
8 7 6 5 6 5 5 5 4 6 6 6 7 6 7 7 7 6 6 6 4 6 5 7 7 8 8 5 6 5 10 5
8 7 6 5 5 4 6 4 2 5 4 4 6 6 4 6 6 7 5 6 7 4 4 6 6 7 8 7 8 9 6 7
8 8 7 6 4 2 3 3 1 1 3 4 5 5 7 6 6 8 7 6 6 7 8 6 6 8 7 8 8 8 9 9
10 10 10 6 5 5 4 2 1 2 3 3 5 6 7 7 9 7 8 7 7 7 8 9 8 8 8 8 7 8 9 9
10 11 11 7 7 6 4 1 4 6 6 6 8 7 7 7 8 8 7 7 7 8 9 8 8 8 9 8 8 9 9 9
13 12 12 8 7 6 1 3 3 4 6 6 7 7 8 10 10 10 10 10 9 9 8 8 9 9 11 11 10 10 9 10
Wind_Direction
148 154 145 147 152 161 164 168 167 173 179 181 186 190 194 197 203 209 211 211 210 193 187 199 202 201 203 204 212 230 254 288
163 164 170 169 163 121 118 110 138 170 186 196 196 197 208 213 225 222 227 229 235 228 208 203 215 222 218 217 221 234 248 255
172 179 182 180 165 143 156 158 162 173 182 190 204 227 194 205 220 149 199 234 254 257 248 230 218 227 234 224 213 233 230 231
150 167 91 122 177 159 197 186 203 194 61 184 213 246 235 296 103 146 199 217 230 233 239 239 228 242 210 216 224 234 245 253
153 121 90 186 42 118 125 132 75 47 36 26 349 356 271 239 210 206 221 206 233 211 219 228 234 237 248 183 220 245 246 242
141 120 101 89 89 54 34 54 48 54 38 13 27 4 3 1 19 346 312 283 288 296 267 276 262 260 266 265 237 243 228 246
83 78 89 76 70 61 58 52 46 47 46 27 31 20 4 9 334 359 348 358 310 290 286 296 299 305 295 283 276 267 265 267
97 105 97 87 84 81 79 60 62 64 46 42 27 3 9 357 10 353 354 345 346 314 318 314 300 275 277 273 290 274 260 264
95 88 95 106 109 105 95 97 90 79 75 55 52 24 359 340 359 340 350 322 306 300 303 293 284 280 274 264 265 275 278 273
90 88 90 86 93 95 92 93 83 74 65 53 22 24 11 340 334 330 0 309 316 311 310 303 297 292 290 289 285 271 251 260
125 120 112 114 109 103 93 75 64 54 46 31 19 11 3 344 331 337 337 313 312 307 302 307 302 292 288 281 279 278 281 273
131 132 136 129 124 119 107 99 84 51 49 40 17 11 359 345 334 342 326 321 316 324 319 304 301 294 289 291 295 288 283 279
136 131 132 153 174 102 122 92 72 49 38 39 27 7 359 351 344 338 335 328 327 307 301 301 293 299 298 288 273 258 249 257
149 147 125 109 90 89 88 134 126 145 131 62 38 357 357 339 346 337 347 330 333 334 327 327 307 290 305 305 291 285 243 223
177 155 148 118 129 138 141 168 168 89 27 18 356 348 335 333 334 331 335 311 328 313 325 318 316 317 303 291 311 296 352 302
186 158 143 121 78 75 48 47 24 49 30 353 324 311 279 294 301 304 330 314 319 314 307 304 295 301 299 272 256 288 300 306
194 172 159 148 131 120 114 94 105 78 240 324 298 291 314 309 305 321 315 313 317 298 302 282 273 270 284 299 306 292 270 267
195 192 182 176 153 138 139 141 203 262 343 315 301 314 315 310 307 304 306 298 298 309 312 296 289 295 291 286 278 275 287 293
198 210 210 177 164 172 176 318 324 319 304 308 315 310 306 302 295 285 289 294 297 294 293 292 289 284 292 291 286 280 280 280
203 218 229 178 190 174 194 282 281 260 287 302 298 301 298 303 297 292 281 281 277 274 281 284 284 285 282 275 280 278 275 269